Weather History for El Centro, CA

Change the Weather History Date:

Wednesday, May 1, 2013

  Actual Average Record
Temperature  
Mean Temperature 80 °F -  
Max Temperature 97 °F 87 °F 99 °F (2001)
Min Temperature 62 °F 61 °F 48 °F (2011)
Cooling Degree Days 14    
Growing Degree Days 30 (Base 50)    
Moisture  
Dew Point 35 °F    
Average Humidity 26    
Maximum Humidity 58    
Minimum Humidity 5    
Precipitation  
Precipitation 0.00 in - - ()
Sea Level Pressure  
Sea Level Pressure 29.90 in    
Wind  
Wind Speed 7 mph (NNE)    
Max Wind Speed 13 mph    
Max Gust Speed 16 mph    
Visibility 10 miles    
Events      
Averages and records for this station are not official NWS values.
T = Trace of Precipitation, MM = Missing Value Source: NWS Daily Summary

Daily Weather History Graph

Daily Weather History Graph

Search for Another Location

Airport:

Trip Planner

Search our weather history database for the weather conditions in past years. The results will help you decide how hot, cold, wet, or windy it might be!

Date:

Astronomy

May. 01, 2013 Rise Set
Actual Time 5:55 AM PDT 7:24 PM PDT
Civil Twilight 5:28 AM PDT 7:51 PM PDT
Nautical Twilight 4:57 AM PDT 8:22 PM PDT
Astronomical Twilight 4:24 AM PDT 8:55 PM PDT
Moon 12:36 AM PDT (5/1) 11:38 AM PDT (5/1)
Length of Visible Light 14h 22m
Length of Day
13h 29m
Waning Gibbous, 58% of the Moon is Illuminated
May 1
Waning Gibbous
May 2
Last Quarter
May 9
New
May 17
First Quarter
May 24
Full

Hourly Weather History & Observations

Time (PDT) Temp. Dew Point Humidity Pressure Visibility Wind Dir Wind Speed Gust Speed Precip Events Conditions
12:56 AM 73.9 °F 42.1 °F 32% 29.73 in 10.0 mi WSW 11.5 mph - N/A   Clear
1:56 AM 72.0 °F 44.1 °F 37% 29.74 in 10.0 mi SSW 6.9 mph - N/A   Clear
2:56 AM 70.0 °F 48.0 °F 46% 29.75 in 10.0 mi SSE 4.6 mph - N/A   Clear
3:56 AM 70.0 °F 48.0 °F 46% 29.77 in 10.0 mi Variable 5.8 mph - N/A   Clear
4:56 AM 66.0 °F 48.9 °F 54% 29.79 in 10.0 mi SE 5.8 mph - N/A   Clear
5:56 AM 63.0 °F 48.0 °F 58% 29.82 in 10.0 mi ESE 5.8 mph - N/A   Clear
6:56 AM 62.1 °F 46.0 °F 56% 29.87 in 10.0 mi NNE 5.8 mph - N/A   Clear
7:56 AM 70.0 °F 50.0 °F 49% 29.90 in 10.0 mi ENE 3.5 mph - N/A   Clear
8:56 AM 73.9 °F 52.0 °F 46% 29.93 in 10.0 mi Calm Calm - N/A   Clear
9:56 AM 79.0 °F 53.1 °F 40% 29.94 in 10.0 mi Calm Calm - N/A   Clear
10:56 AM 84.9 °F 51.1 °F 31% 29.95 in 10.0 mi West 6.9 mph - N/A   Clear
11:56 AM 90.0 °F 42.1 °F 19% 29.95 in 10.0 mi NE 8.1 mph - N/A   Clear
12:56 PM 91.9 °F 30.0 °F 11% 29.94 in 10.0 mi NE 6.9 mph - N/A   Clear
1:56 PM 93.9 °F 28.0 °F 10% 29.94 in 10.0 mi NNE 10.4 mph 16.1 mph N/A   Clear
2:56 PM 96.1 °F 28.0 °F 9% 29.92 in 10.0 mi NE 6.9 mph - N/A   Clear
3:56 PM 97.0 °F 19.9 °F 6% 29.91 in 10.0 mi North 6.9 mph - N/A   Clear
4:56 PM 97.0 °F 21.9 °F 7% 29.91 in 10.0 mi NNE 6.9 mph - N/A   Clear
5:56 PM 96.1 °F 16.0 °F 5% 29.91 in 10.0 mi NNW 3.5 mph - N/A   Clear
6:56 PM 91.9 °F 19.9 °F 7% 29.92 in 10.0 mi NNW 4.6 mph - N/A   Clear
7:56 PM 84.9 °F 19.0 °F 9% 29.94 in 10.0 mi NW 5.8 mph - N/A   Clear
8:56 PM 80.1 °F 19.0 °F 10% 29.96 in 10.0 mi NNW 3.5 mph - N/A   Clear
9:56 PM 73.9 °F 26.1 °F 17% 29.99 in 10.0 mi NNE 12.7 mph - N/A   Clear
10:56 PM 75.0 °F 18.0 °F 12% 30.01 in 10.0 mi NNE 11.5 mph - N/A   Clear
11:56 PM 71.1 °F 19.0 °F 14% 30.03 in 10.0 mi NNE 11.5 mph - N/A   Clear